Tracking 19562 objects as of 24-Mar-2019
HD Live streaming from Space Station
objects crossing your sky now

SSETI-EXPRESS

Track SSETI-EXPRESS now!
10-day predictions
SSETI-EXPRESS is classified as:


NORAD ID: 28894
Int'l Code: 2005-043E
Perigee: 684.1 km
Apogee: 706.4 km
Inclination: 98.0 °
Period: 98.5 minutes
Semi major axis: 7066 km
RCS: 0.4261 m2 (medium)
Launch date: October 27, 2005
Source: European Space Agency (ESA)
Launch site: PLESETSK MISSILE AND SPACE COMPLEX (PKMTR)

Uplink (MHz):
Downlink (MHz): 437.250
Beacon (MHz): 437.250
Mode: 9600bps FSK
Call sign: SSETI1
Status: Inactive

aabbcc
Your satellite tracking list
Your tracking list is empty




NASA's NSSDC Master Catalog

Two Line Element Set (TLE):
1 28894U 05043E   19083.17511842  .00000032  00000-0  15578-4 0  9998
2 28894  97.9672 223.2788 0015762 288.5869  71.3621 14.61567861714548
Source of the keplerian elements: AFSPC